TimeEST,TemperatureF,Dew PointF,Humidity,Sea Level PressureIn,VisibilityMPH,Wind Direction,Wind SpeedMPH,Gust SpeedMPH,PrecipitationIn,Events,Conditions,WindDirDegrees,DateUTC
12:15 AM,52.7,37.2,56,30.42,10.0,ENE,3.5,-,N/A,,Overcast,60,2013-01-11 05:15:00
12:35 AM,52.3,37.4,57,30.41,10.0,ENE,4.6,-,N/A,,Overcast,70,2013-01-11 05:35:00
1:15 AM,52.0,38.5,60,30.39,10.0,ENE,5.8,-,N/A,,Mostly Cloudy,70,2013-01-11 06:15:00
1:35 AM,52.2,38.5,60,30.39,10.0,ENE,5.8,-,N/A,,Mostly Cloudy,70,2013-01-11 06:35:00
1:55 AM,51.3,38.3,61,30.38,10.0,ENE,4.6,-,N/A,,Overcast,70,2013-01-11 06:55:00
2:15 AM,50.9,38.5,62,30.37,10.0,East,5.8,-,N/A,,Overcast,80,2013-01-11 07:15:00
2:35 AM,50.4,39.2,66,30.36,10.0,ENE,3.5,-,N/A,,Mostly Cloudy,70,2013-01-11 07:35:00
2:55 AM,50.4,39.7,67,30.36,10.0,ENE,3.5,-,N/A,,Mostly Cloudy,60,2013-01-11 07:55:00
3:15 AM,50.4,40.1,68,30.36,10.0,ENE,3.5,-,N/A,,Overcast,70,2013-01-11 08:15:00
3:35 AM,50.4,40.5,69,30.35,10.0,ENE,4.6,-,N/A,,Overcast,70,2013-01-11 08:35:00
3:55 AM,50.4,41.2,71,30.34,10.0,East,5.8,-,N/A,,Overcast,80,2013-01-11 08:55:00
4:15 AM,50.4,41.9,73,30.34,10.0,East,3.5,-,N/A,,Overcast,80,2013-01-11 09:15:00
4:35 AM,50.5,42.4,74,30.33,10.0,Calm,Calm,-,N/A,,Overcast,0,2013-01-11 09:35:00
4:55 AM,50.4,42.8,75,30.32,10.0,Calm,Calm,-,N/A,,Overcast,0,2013-01-11 09:55:00
5:15 AM,50.5,43.3,76,30.31,10.0,East,3.5,-,N/A,,Overcast,90,2013-01-11 10:15:00
5:35 AM,50.4,43.7,78,30.31,10.0,East,3.5,-,N/A,,Overcast,80,2013-01-11 10:35:00
5:55 AM,50.9,44.6,79,30.31,10.0,Calm,Calm,-,N/A,,Overcast,0,2013-01-11 10:55:00
6:15 AM,50.9,44.8,80,30.32,10.0,Calm,Calm,-,N/A,,Overcast,0,2013-01-11 11:15:00
6:55 AM,51.1,45.0,80,30.32,10.0,Calm,Calm,-,N/A,,Overcast,0,2013-01-11 11:55:00
7:15 AM,51.1,45.5,81,30.33,10.0,Calm,Calm,-,N/A,Rain,Rain,0,2013-01-11 12:15:00
7:35 AM,50.4,47.1,89,30.33,10.0,Calm,Calm,-,N/A,,Overcast,0,2013-01-11 12:35:00
7:55 AM,50.2,48.2,93,30.34,5.0,Calm,Calm,-,N/A,,Drizzle,0,2013-01-11 12:55:00
8:15 AM,50.0,48.2,94,30.34,7.0,Calm,Calm,-,N/A,,Overcast,0,2013-01-11 13:15:00
8:35 AM,50.0,48.4,94,30.34,10.0,Calm,Calm,-,0.01,,Overcast,0,2013-01-11 13:35:00
9:15 AM,51.1,48.9,92,30.33,10.0,Calm,Calm,-,N/A,,Overcast,0,2013-01-11 14:15:00
9:35 AM,52.2,49.6,91,30.32,10.0,Calm,Calm,-,N/A,,Mostly Cloudy,0,2013-01-11 14:35:00
9:55 AM,53.1,50.0,89,30.33,10.0,Calm,Calm,-,N/A,Rain,Rain,0,2013-01-11 14:55:00
10:15 AM,53.6,50.4,89,30.32,10.0,Calm,Calm,-,N/A,,Overcast,0,2013-01-11 15:15:00
10:35 AM,54.1,50.7,88,30.32,10.0,Calm,Calm,-,N/A,,Overcast,0,2013-01-11 15:35:00
10:55 AM,55.2,51.4,87,30.31,10.0,Calm,Calm,-,N/A,,Overcast,0,2013-01-11 15:55:00
11:15 AM,55.6,51.8,87,30.30,7.0,Calm,Calm,-,N/A,,Overcast,0,2013-01-11 16:15:00
11:35 AM,57.0,52.0,83,30.30,10.0,Calm,Calm,-,N/A,,Overcast,0,2013-01-11 16:35:00
11:55 AM,57.4,52.2,83,30.28,7.0,Calm,Calm,-,N/A,,Light Drizzle,0,2013-01-11 16:55:00
12:35 PM,61.0,55.6,82,30.25,10.0,SE,3.5,-,N/A,,Overcast,130,2013-01-11 17:35:00
12:55 PM,63.5,56.7,78,30.24,10.0,Calm,Calm,-,N/A,,Mostly Cloudy,0,2013-01-11 17:55:00
1:15 PM,66.2,58.3,76,30.22,10.0,SSE,3.5,-,N/A,,Scattered Clouds,150,2013-01-11 18:15:00
1:35 PM,68.9,60.1,73,30.21,10.0,South,5.8,-,N/A,,Clear,180,2013-01-11 18:35:00
1:55 PM,69.8,60.8,73,30.22,10.0,SW,4.6,-,N/A,,Clear,220,2013-01-11 18:55:00
2:15 PM,69.8,60.8,73,30.22,10.0,West,4.6,-,N/A,,Scattered Clouds,260,2013-01-11 19:15:00
2:35 PM,69.8,60.8,73,30.20,10.0,West,4.6,-,N/A,,Scattered Clouds,260,2013-01-11 19:35:00
2:55 PM,70.7,60.8,71,30.19,10.0,SW,5.8,-,N/A,,Clear,220,2013-01-11 19:55:00
3:15 PM,73.4,60.6,64,30.19,10.0,SW,12.7,-,N/A,,Scattered Clouds,230,2013-01-11 20:15:00
3:35 PM,72.1,60.6,67,30.19,10.0,WSW,9.2,-,N/A,,Scattered Clouds,250,2013-01-11 20:35:00
3:55 PM,71.1,60.8,70,30.19,10.0,WSW,4.6,-,N/A,,Scattered Clouds,240,2013-01-11 20:55:00
4:15 PM,71.6,61.0,69,30.19,10.0,WSW,3.5,-,N/A,,Scattered Clouds,240,2013-01-11 21:15:00
4:35 PM,71.2,61.3,71,30.18,10.0,SW,4.6,-,N/A,,Clear,220,2013-01-11 21:35:00
4:55 PM,70.7,61.2,72,30.18,10.0,SW,5.8,-,N/A,,Clear,220,2013-01-11 21:55:00
5:15 PM,69.4,61.3,75,30.19,10.0,Calm,Calm,-,N/A,,Clear,0,2013-01-11 22:15:00
5:35 PM,67.1,60.8,80,30.19,10.0,Calm,Calm,-,N/A,,Clear,0,2013-01-11 22:35:00
5:55 PM,64.6,60.3,86,30.19,10.0,Calm,Calm,-,N/A,,Scattered Clouds,0,2013-01-11 22:55:00
6:15 PM,63.0,60.8,93,30.18,10.0,SSE,3.5,-,N/A,,Scattered Clouds,150,2013-01-11 23:15:00
6:35 PM,64.6,62.1,92,30.18,10.0,South,3.5,-,N/A,,Clear,170,2013-01-11 23:35:00
6:55 PM,63.3,61.0,92,30.18,10.0,SSE,3.5,-,N/A,,Clear,160,2013-01-11 23:55:00
7:15 PM,63.0,61.0,93,30.18,10.0,SSE,3.5,-,N/A,,Clear,160,2013-01-12 00:15:00
7:35 PM,62.8,61.2,94,30.18,10.0,South,3.5,-,N/A,,Clear,170,2013-01-12 00:35:00
7:55 PM,59.2,58.1,96,30.18,7.0,Calm,Calm,-,N/A,,Clear,0,2013-01-12 00:55:00
8:15 PM,63.0,62.1,97,30.17,10.0,SSE,4.6,-,N/A,,Clear,160,2013-01-12 01:15:00
8:35 PM,61.9,60.6,96,30.17,10.0,South,3.5,-,N/A,,Clear,170,2013-01-12 01:35:00
8:55 PM,60.4,59.7,97,30.17,7.0,SW,3.5,-,N/A,,Clear,220,2013-01-12 01:55:00
9:15 PM,62.8,62.6,99,30.18,7.0,Calm,Calm,-,N/A,,Clear,0,2013-01-12 02:15:00
9:35 PM,61.2,61.0,99,30.18,4.0,Calm,Calm,-,N/A,,Clear,0,2013-01-12 02:35:00
9:55 PM,58.8,58.8,100,30.19,0.8,South,3.5,-,N/A,,Mist,190,2013-01-12 02:55:00
10:15 PM,60.8,60.8,100,30.18,5.0,South,3.5,-,N/A,,Clear,180,2013-01-12 03:15:00
10:35 PM,60.3,60.3,100,30.17,5.0,South,4.6,-,N/A,,Scattered Clouds,190,2013-01-12 03:35:00
10:55 PM,62.8,62.8,100,30.17,7.0,SSW,6.9,-,N/A,,Overcast,200,2013-01-12 03:55:00
11:15 PM,62.8,62.8,100,30.17,7.0,SSW,4.6,-,N/A,,Overcast,210,2013-01-12 04:15:00
11:35 PM,62.8,62.8,100,30.17,7.0,SSW,4.6,-,N/A,,Overcast,200,2013-01-12 04:35:00
11:55 PM,62.8,62.8,100,30.17,7.0,SSW,4.6,-,N/A,,Mostly Cloudy,210,2013-01-12 04:55:00